Location: Newark
(35.8967°N, 14.4625°E)
Time: 07:43:19
(UTC+00:00)

Envisat - Visible Passes

Search period start: 23 October 2019 00:00
Search period end: 02 November 2019 00:00
Orbit: 764 x 766 km, 98.1° (Epoch: 23 October)

Date Brightness Start Highest point End Pass type
(mag) Time Alt. Az. Time Alt. Az. Time Alt. Az.
23 Oct 3.1 17:17:04 10° S 17:22:08 79° WSW 17:27:14 10° NNW visible
24 Oct 3.3 16:40:40 10° SE 16:45:28 44° ENE 16:50:16 10° N visible
24 Oct 5.7 18:21:14 10° SW 18:24:39 18° W 18:28:06 10° NW visible
25 Oct 4.3 17:42:53 10° S 17:47:41 42° W 17:52:29 10° NNW visible
26 Oct 2.9 17:05:49 10° SSE 17:10:52 81° ENE 17:15:58 10° N visible
27 Oct 3.6 16:29:43 10° SE 16:34:16 35° ENE 16:38:50 10° N visible
27 Oct 5.4 18:09:18 10° SSW 18:13:18 23° W 18:17:19 10° NW visible
28 Oct 6.3 04:42:42 10° ENE 04:45:30 15° E 04:48:19 10° SE visible
28 Oct 3.7 17:31:25 10° S 17:36:22 55° W 17:41:22 10° NNW visible
29 Oct 3.0 16:54:38 10° SSE 16:59:38 63° ENE 17:04:40 10° N visible
29 Oct 6.1 18:36:57 10° WSW 18:39:02 12° W 18:41:07 10° WNW visible
30 Oct 4.9 17:57:34 10° SSW 18:01:58 30° W 18:06:24 10° NW visible
31 Oct 6.6 04:32:42 10° ENE 04:34:08 11° E 04:35:33 10° ESE visible
31 Oct 3.3 17:20:03 10° S 17:25:06 71° WSW 17:30:11 10° NNW visible
01 Nov 3.2 16:43:33 10° SSE 16:48:25 49° ENE 16:53:18 10° N visible
01 Nov 5.8 18:24:31 10° SW 18:27:39 16° W 18:30:48 10° NW visible
